TimeCST,TemperatureF,Dew PointF,Humidity,Sea Level PressureIn,VisibilityMPH,Wind Direction,Wind SpeedMPH,Gust SpeedMPH,PrecipitationIn,Events,Conditions,WindDirDegrees,DateUTC
12:14 AM,30.2,26.6,86,30.05,5.0,NE,3.5,-,N/A,,Scattered Clouds,40,2012-11-18 06:14:00
12:34 AM,30.2,26.6,86,30.05,5.0,ENE,4.6,-,N/A,,Scattered Clouds,60,2012-11-18 06:34:00
12:54 AM,32.0,26.6,80,30.04,5.0,ENE,5.8,-,N/A,,Haze,70,2012-11-18 06:54:00
1:14 AM,32.0,28.4,87,30.04,7.0,East,5.8,-,N/A,,Mostly Cloudy,90,2012-11-18 07:14:00
1:34 AM,33.8,28.4,81,30.04,7.0,East,4.6,-,N/A,,Mostly Cloudy,80,2012-11-18 07:34:00
1:54 AM,33.8,28.4,81,30.03,7.0,ENE,4.6,-,N/A,,Scattered Clouds,70,2012-11-18 07:54:00
2:14 AM,32.0,28.4,87,30.03,5.0,East,3.5,-,N/A,,Scattered Clouds,80,2012-11-18 08:14:00
2:34 AM,32.0,28.4,87,30.03,5.0,ENE,4.6,-,N/A,,Scattered Clouds,70,2012-11-18 08:34:00
2:54 AM,33.8,28.4,81,30.03,7.0,East,3.5,-,N/A,,Scattered Clouds,90,2012-11-18 08:54:00
3:14 AM,33.8,28.4,81,30.03,7.0,Calm,Calm,-,N/A,,Scattered Clouds,0,2012-11-18 09:14:00
3:35 AM,35.6,30.2,81,30.02,7.0,Calm,Calm,-,N/A,,Scattered Clouds,0,2012-11-18 09:35:00
3:54 AM,33.8,28.4,81,30.02,7.0,Calm,Calm,-,N/A,,Scattered Clouds,0,2012-11-18 09:54:00
4:14 AM,33.8,30.2,87,30.01,7.0,East,3.5,-,N/A,,Scattered Clouds,100,2012-11-18 10:14:00
4:35 AM,35.6,30.2,81,30.01,7.0,SE,4.6,-,N/A,,Scattered Clouds,140,2012-11-18 10:35:00
4:54 AM,37.4,33.8,87,30.01,10.0,SSE,6.9,-,N/A,,Scattered Clouds,150,2012-11-18 10:54:00
5:14 AM,37.4,33.8,87,30.01,10.0,SSE,4.6,-,N/A,,Scattered Clouds,160,2012-11-18 11:14:00
5:34 AM,37.4,32.0,81,30.01,10.0,SSE,3.5,-,N/A,,Scattered Clouds,160,2012-11-18 11:34:00
5:54 AM,37.4,32.0,81,30.01,10.0,SSE,5.8,-,N/A,,Scattered Clouds,160,2012-11-18 11:54:00
6:15 AM,37.4,32.0,81,30.01,10.0,SSE,4.6,-,N/A,,Clear,150,2012-11-18 12:15:00
6:34 AM,35.6,30.2,81,30.00,10.0,Calm,Calm,-,N/A,,Clear,0,2012-11-18 12:34:00
6:54 AM,33.8,30.2,87,30.00,10.0,SE,4.6,-,N/A,,Clear,130,2012-11-18 12:54:00
7:15 AM,37.4,32.0,81,30.00,10.0,SE,5.8,-,N/A,,Clear,130,2012-11-18 13:15:00
7:34 AM,37.4,32.0,81,30.00,10.0,SE,4.6,-,N/A,,Clear,130,2012-11-18 13:34:00
7:54 AM,32.0,26.6,80,30.00,7.0,Calm,Calm,-,N/A,,Clear,0,2012-11-18 13:54:00
8:15 AM,33.8,30.2,87,30.00,10.0,SE,5.8,-,N/A,,Clear,130,2012-11-18 14:15:00
8:34 AM,37.4,32.0,81,30.00,10.0,SE,6.9,-,N/A,,Clear,140,2012-11-18 14:34:00
8:54 AM,37.4,32.0,81,30.00,10.0,SE,4.6,-,N/A,,Clear,140,2012-11-18 14:54:00
9:15 AM,39.2,33.8,81,30.00,10.0,SSE,5.8,-,N/A,,Clear,150,2012-11-18 15:15:00
9:34 AM,39.2,33.8,81,30.00,10.0,SSE,6.9,-,N/A,,Clear,160,2012-11-18 15:34:00
9:54 AM,42.8,35.6,76,30.00,10.0,SSE,8.1,-,N/A,,Clear,160,2012-11-18 15:54:00
10:14 AM,42.8,35.6,76,29.99,10.0,SSE,8.1,-,N/A,,Clear,160,2012-11-18 16:14:00
10:34 AM,44.6,35.6,71,29.99,10.0,SSE,5.8,-,N/A,,Clear,160,2012-11-18 16:34:00
10:55 AM,44.6,37.4,76,29.99,10.0,SSE,8.1,-,N/A,,Clear,150,2012-11-18 16:55:00
11:14 AM,44.6,37.4,76,29.99,10.0,SSE,9.2,-,N/A,,Clear,150,2012-11-18 17:14:00
11:34 AM,46.4,37.4,71,29.98,10.0,SSE,6.9,-,N/A,,Clear,150,2012-11-18 17:34:00
11:54 AM,46.4,37.4,71,29.97,10.0,SE,8.1,-,N/A,,Clear,140,2012-11-18 17:54:00
12:14 PM,46.4,37.4,71,29.97,10.0,SSE,6.9,-,N/A,,Clear,150,2012-11-18 18:14:00
12:35 PM,48.2,37.4,66,29.97,10.0,SSE,6.9,-,N/A,,Clear,150,2012-11-18 18:35:00
12:54 PM,48.2,37.4,66,29.97,10.0,SSE,6.9,-,N/A,,Clear,150,2012-11-18 18:54:00
1:14 PM,48.2,37.4,66,29.96,10.0,SSE,6.9,-,N/A,,Clear,160,2012-11-18 19:14:00
1:35 PM,48.2,37.4,66,29.95,10.0,SE,6.9,-,N/A,,Clear,140,2012-11-18 19:35:00
1:54 PM,50.0,39.2,66,29.95,10.0,SSE,8.1,-,N/A,,Clear,160,2012-11-18 19:54:00
2:14 PM,50.0,39.2,66,29.95,10.0,SSE,4.6,-,N/A,,Clear,150,2012-11-18 20:14:00
2:35 PM,50.0,39.2,66,29.94,10.0,SSE,6.9,-,N/A,,Clear,150,2012-11-18 20:35:00
2:54 PM,50.0,39.2,66,29.94,10.0,SSE,5.8,-,N/A,,Clear,150,2012-11-18 20:54:00
3:14 PM,50.0,39.2,66,29.94,10.0,SE,5.8,-,N/A,,Clear,140,2012-11-18 21:14:00
3:35 PM,48.2,39.2,71,29.95,10.0,SE,5.8,-,N/A,,Clear,140,2012-11-18 21:35:00
3:54 PM,46.4,37.4,71,29.95,10.0,SE,4.6,-,N/A,,Clear,140,2012-11-18 21:54:00
4:14 PM,46.4,37.4,71,29.96,10.0,SE,5.8,-,N/A,,Clear,130,2012-11-18 22:14:00
4:35 PM,46.4,35.6,66,29.96,10.0,SE,5.8,-,N/A,,Clear,130,2012-11-18 22:35:00
4:54 PM,44.6,35.6,71,29.96,10.0,ESE,4.6,-,N/A,,Clear,120,2012-11-18 22:54:00
5:14 PM,42.8,35.6,76,29.96,10.0,ESE,5.8,-,N/A,,Clear,120,2012-11-18 23:14:00
5:35 PM,42.8,35.6,76,29.96,10.0,SE,6.9,-,N/A,,Clear,130,2012-11-18 23:35:00
5:54 PM,42.8,35.6,76,29.96,10.0,ESE,5.8,-,N/A,,Clear,120,2012-11-18 23:54:00
6:14 PM,42.8,33.8,70,29.96,10.0,ESE,6.9,-,N/A,,Clear,120,2012-11-19 00:14:00
6:35 PM,42.8,33.8,70,29.95,10.0,ESE,5.8,-,N/A,,Clear,110,2012-11-19 00:35:00
6:54 PM,42.8,33.8,70,29.95,10.0,SE,8.1,-,N/A,,Clear,130,2012-11-19 00:54:00
7:14 PM,41.0,33.8,76,29.94,10.0,SE,9.2,-,N/A,,Clear,130,2012-11-19 01:14:00
7:35 PM,41.0,33.8,76,29.94,10.0,SE,8.1,-,N/A,,Clear,130,2012-11-19 01:35:00
7:54 PM,39.2,32.0,75,29.95,10.0,SE,5.8,-,N/A,,Clear,140,2012-11-19 01:54:00
8:14 PM,39.2,33.8,81,29.94,10.0,SE,6.9,-,N/A,,Clear,140,2012-11-19 02:14:00
8:35 PM,37.4,30.2,75,29.94,10.0,SE,4.6,-,N/A,,Clear,140,2012-11-19 02:35:00
8:54 PM,37.4,32.0,81,29.93,10.0,SE,4.6,-,N/A,,Clear,130,2012-11-19 02:54:00
9:14 PM,39.2,32.0,75,29.92,10.0,ESE,5.8,-,N/A,,Clear,120,2012-11-19 03:14:00
9:34 PM,39.2,32.0,75,29.92,10.0,Calm,Calm,-,N/A,,Clear,0,2012-11-19 03:34:00
9:54 PM,35.6,30.2,81,29.92,10.0,Calm,Calm,-,N/A,,Clear,0,2012-11-19 03:54:00
10:14 PM,35.6,30.2,81,29.92,10.0,Calm,Calm,-,N/A,,Scattered Clouds,0,2012-11-19 04:14:00
10:34 PM,35.6,30.2,81,29.92,10.0,ESE,3.5,-,N/A,,Clear,120,2012-11-19 04:34:00
11:14 PM,35.6,30.2,81,29.92,10.0,Calm,Calm,-,N/A,,Scattered Clouds,0,2012-11-19 05:14:00
11:34 PM,33.8,28.4,81,29.91,10.0,Calm,Calm,-,N/A,,Scattered Clouds,0,2012-11-19 05:34:00
11:55 PM,35.6,30.2,81,29.91,10.0,ESE,3.5,-,N/A,,Scattered Clouds,110,2012-11-19 05:55:00